When you browse on this site, cookies collect data to enhance your experience and personalize the content and advertising you see.
Visit our Privacy Policy to learn more. By continuing to use the site, you agree to this use of cookies and data.

Hourly Weather Brolniki

Today, 29 September, Tuesday

Time Temperature Precipitation Wind Pressure Humidity
00:00 +9°C° 0 mm 3 mps 749 mmHg 81%
01:00 +9°C° 0 mm 3 mps 749 mmHg 81%
02:00 +9°C° 0 mm 3 mps 748 mmHg 81%
03:00 +9°C° 0 mm 3 mps 748 mmHg 80%
04:00 +9°C° 0 mm 3 mps 748 mmHg 78%
05:00 +8°C° 0 mm 4 mps 747 mmHg 76%
06:00 +10°C° 0 mm 4 mps 748 mmHg 74%
07:00 +11°C° 0 mm 4 mps 748 mmHg 72%
08:00 +11°C° 0 mm 4 mps 748 mmHg 70%
09:00 +13°C° 0 mm 4 mps 748 mmHg 66%
10:00 +14°C° 0 mm 4 mps 748 mmHg 62%
11:00 +17°C° 0 mm 4 mps 747 mmHg 58%
12:00 +18°C° 0 mm 4 mps 747 mmHg 56%
13:00 +18°C° 0 mm 4 mps 747 mmHg 54%
14:00 +19°C° 0 mm 4 mps 747 mmHg 51%
15:00 +18°C° 0 mm 4 mps 746 mmHg 56%
16:00 +17°C° 0 mm 4 mps 746 mmHg 60%
17:00 +16°C° 0 mm 3 mps 746 mmHg 65%
18:00 +14°C° 0 mm 3 mps 746 mmHg 70%
19:00 +13°C° 0 mm 3 mps 746 mmHg 75%
20:00 +12°C° 0 mm 4 mps 746 mmHg 80%
21:00 +12°C° 0 mm 4 mps 746 mmHg 83%
22:00 +12°C° 0 mm 4 mps 746 mmHg 87%
23:00 +12°C° 0 mm 3 mps 746 mmHg 90%

Tomorrow, 30 September, Wednesday

Time Temperature Precipitation Wind Pressure Humidity
00:00 +12°C° 0 mm 4 mps 745 mmHg 88%
01:00 +12°C° 0 mm 4 mps 745 mmHg 87%
02:00 +12°C° 0 mm 4 mps 745 mmHg 86%
03:00 +12°C° 0 mm 4 mps 745 mmHg 85%
04:00 +11°C° 0 mm 4 mps 744 mmHg 84%
05:00 +11°C° 0 mm 4 mps 744 mmHg 83%
06:00 +11°C° 0 mm 4 mps 744 mmHg 80%
07:00 +12°C° 0 mm 5 mps 744 mmHg 77%
08:00 +12°C° 0 mm 5 mps 744 mmHg 74%
09:00 +13°C° 0 mm 5 mps 744 mmHg 70%
10:00 +14°C° 0 mm 5 mps 744 mmHg 66%
11:00 +14°C° 0 mm 5 mps 743 mmHg 61%
12:00 +15°C° 0 mm 5 mps 743 mmHg 60%
13:00 +15°C° 0 mm 5 mps 743 mmHg 59%
14:00 +16°C° 0 mm 5 mps 743 mmHg 58%
15:00 +15°C° 0 mm 5 mps 743 mmHg 60%
16:00 +15°C° 0 mm 5 mps 743 mmHg 62%
17:00 +14°C° 0 mm 5 mps 743 mmHg 63%
18:00 +13°C° 0 mm 5 mps 743 mmHg 65%
19:00 +12°C° 0 mm 4 mps 743 mmHg 66%
20:00 +12°C° 0 mm 4 mps 744 mmHg 67%
21:00 +11°C° 0 mm 4 mps 743 mmHg 67%
22:00 +11°C° 0 mm 4 mps 743 mmHg 67%
23:00 +10°C° 0 mm 4 mps 743 mmHg 67%

Day after tomorrow, 1 October, Thursday

Time Temperature Precipitation Wind Pressure Humidity
00:00 +10°C° 0 mm 4 mps 743 mmHg 67%
01:00 +10°C° 0 mm 4 mps 743 mmHg 67%
02:00 +10°C° 0 mm 4 mps 743 mmHg 66%
03:00 +10°C° 0 mm 4 mps 743 mmHg 65%
04:00 +10°C° 0 mm 4 mps 743 mmHg 64%
05:00 +11°C° 0 mm 4 mps 743 mmHg 63%
06:00 +10°C° 0 mm 5 mps 742 mmHg 62%
07:00 +12°C° 0 mm 5 mps 742 mmHg 61%
08:00 +12°C° 0 mm 5 mps 742 mmHg 60%
09:00 +13°C° 0 mm 5 mps 742 mmHg 60%
10:00 +14°C° 0 mm 6 mps 743 mmHg 61%
11:00 +16°C° 0 mm 6 mps 743 mmHg 61%
12:00 +16°C° 0 mm 6 mps 743 mmHg 65%
13:00 +16°C° 0 mm 5 mps 743 mmHg 68%
14:00 +16°C° 0 mm 5 mps 743 mmHg 71%
15:00 +15°C° 0 mm 5 mps 743 mmHg 73%
16:00 +15°C° 0 mm 5 mps 743 mmHg 75%
17:00 +15°C° 0 mm 4 mps 743 mmHg 77%
18:00 +14°C° 0 mm 4 mps 743 mmHg 78%
19:00 +13°C° 0 mm 4 mps 744 mmHg 80%
20:00 +13°C° 0 mm 4 mps 744 mmHg 81%
21:00 +12°C° 0 mm 4 mps 744 mmHg 83%
22:00 +11°C° 0 mm 4 mps 744 mmHg 85%
23:00 +11°C° 0 mm 4 mps 744 mmHg 88%

2 October, Friday

Time Temperature Precipitation Wind Pressure Humidity
00:00 +10°C° 0 mm 4 mps 744 mmHg 89%
01:00 +10°C° 0 mm 4 mps 744 mmHg 91%
02:00 +8°C° 0 mm 4 mps 744 mmHg 92%
03:00 +8°C° 0 mm 4 mps 744 mmHg 89%
04:00 +8°C° 0 mm 4 mps 744 mmHg 87%
05:00 +8°C° 0 mm 4 mps 744 mmHg 84%
06:00 +8°C° 0 mm 4 mps 744 mmHg 81%
07:00 +9°C° 0 mm 5 mps 744 mmHg 79%
08:00 +9°C° 0 mm 5 mps 744 mmHg 76%
09:00 +12°C° 0 mm 5 mps 744 mmHg 73%
10:00 +13°C° 0 mm 5 mps 744 mmHg 71%
11:00 +15°C° 0 mm 5 mps 744 mmHg 68%
12:00 +16°C° 0 mm 6 mps 744 mmHg 67%
13:00 +17°C° 0 mm 6 mps 744 mmHg 66%
14:00 +17°C° 0 mm 6 mps 744 mmHg 65%
15:00 +17°C° 0.2 mm 5 mps 744 mmHg 68%
16:00 +16°C° 0.2 mm 5 mps 744 mmHg 71%
17:00 +15°C° 0.2 mm 4 mps 744 mmHg 75%
18:00 +15°C° 0.2 mm 5 mps 745 mmHg 77%
19:00 +14°C° 0.2 mm 5 mps 745 mmHg 79%
20:00 +13°C° 0.2 mm 5 mps 745 mmHg 81%
21:00 +13°C° 0 mm 5 mps 745 mmHg 82%
22:00 +12°C° 0 mm 5 mps 745 mmHg 82%
23:00 +12°C° 0 mm 5 mps 745 mmHg 83%

3 October, Saturday

Time Temperature Precipitation Wind Pressure Humidity
00:00 +12°C° 0 mm 4 mps 745 mmHg 85%
01:00 +11°C° 0 mm 4 mps 745 mmHg 87%
02:00 +11°C° 0 mm 4 mps 745 mmHg 89%
03:00 +10°C° 0 mm 4 mps 745 mmHg 90%
04:00 +10°C° 0 mm 4 mps 745 mmHg 91%
05:00 +10°C° 0 mm 4 mps 745 mmHg 93%
06:00 +10°C° 0.2 mm 4 mps 745 mmHg 92%
07:00 +10°C° 0.2 mm 4 mps 745 mmHg 90%
08:00 +11°C° 0.2 mm 4 mps 745 mmHg 89%
09:00 +11°C° 0.1 mm 4 mps 745 mmHg 88%
10:00 +12°C° 0.1 mm 5 mps 745 mmHg 86%
11:00 +13°C° 0.1 mm 5 mps 745 mmHg 85%
12:00 +13°C° 0.1 mm 5 mps 745 mmHg 84%
13:00 +14°C° 0.1 mm 4 mps 745 mmHg 84%
14:00 +14°C° 0.1 mm 4 mps 745 mmHg 84%
15:00 +14°C° 0.2 mm 4 mps 745 mmHg 85%
16:00 +14°C° 0.2 mm 4 mps 745 mmHg 86%
17:00 +13°C° 0.2 mm 4 mps 745 mmHg 88%
18:00 +13°C° 0 mm 4 mps 745 mmHg 90%
19:00 +13°C° 0 mm 4 mps 745 mmHg 91%
20:00 +12°C° 0 mm 4 mps 745 mmHg 93%
21:00 +12°C° 0 mm 4 mps 745 mmHg 94%
22:00 +12°C° 0 mm 4 mps 745 mmHg 95%
23:00 +11°C° 0 mm 3 mps 745 mmHg 95%

4 October, Sunday

Time Temperature Precipitation Wind Pressure Humidity
00:00 +12°C° 0 mm 4 mps 745 mmHg 95%
01:00 +12°C° 0 mm 4 mps 745 mmHg 95%
02:00 +12°C° 0 mm 4 mps 745 mmHg 95%
03:00 +12°C° 0 mm 4 mps 745 mmHg 94%
04:00 +12°C° 0 mm 4 mps 745 mmHg 93%
05:00 +13°C° 0 mm 4 mps 744 mmHg 91%
06:00 +13°C° 0 mm 5 mps 744 mmHg 91%
07:00 +13°C° 0 mm 5 mps 745 mmHg 90%
08:00 +13°C° 0 mm 5 mps 745 mmHg 90%
09:00 +13°C° 0 mm 6 mps 744 mmHg 87%
10:00 +14°C° 0 mm 6 mps 744 mmHg 85%
11:00 +14°C° 0 mm 6 mps 744 mmHg 82%
12:00 +15°C° 0 mm 6 mps 744 mmHg 80%
13:00 +15°C° 0 mm 6 mps 744 mmHg 78%
14:00 +16°C° 0 mm 7 mps 744 mmHg 75%
15:00 +15°C° 0 mm 7 mps 743 mmHg 77%
16:00 +15°C° 0 mm 7 mps 743 mmHg 79%
17:00 +15°C° 0 mm 7 mps 743 mmHg 80%
18:00 +14°C° 0 mm 7 mps 743 mmHg 82%
19:00 +14°C° 0 mm 7 mps 743 mmHg 84%
20:00 +12°C° 0 mm 7 mps 743 mmHg 85%
21:00 +12°C° 0 mm 7 mps 743 mmHg 86%
22:00 +13°C° 0 mm 6 mps 743 mmHg 86%
23:00 +14°C° 0 mm 6 mps 742 mmHg 87%
Show more